Flag for Germany Weather past 2 weeks in Eberswalde, Brandenburg, Germany

Now
52 °F

Light rain. Passing clouds.


Feels Like: 46 °F
Forecast: 41 / 48 °F
Wind: 22 mph from West

Location: Berlin-Tegel

Current Time: Dec 23, 2014 at 2:02:51 AM

Latest Report: Dec 23, 2014 at 1:20 AM


Visibility: N/A

Pressure: 29.80 "Hg

Humidity: 94%

Dew point: 50 °F

Location of EberswaldeLocation

Historic Weather in Eberswalde — Graph

°F

Eberswalde temperature yesterday

Maximum temperature yesterday: 54 °F (at 8:20 PM)
Minimum temperature yesterday: 45 °F (at 12:20 AM)
Average temperature yesterday: 49 °F

Past Weeks' High & Low Weather Summary

 TemperatureHumidityPressure
High54 °F (Dec 19, 12:20 AM)100% (Dec 8, 2:50 AM)30.36 "Hg (Dec 8, 2:50 AM)
Low28 °F (Dec 9, 4:20 AM)66% (Dec 13, 11:50 AM)29.39 "Hg (Dec 12, 4:20 PM)
Average41 °F87%29.87 "Hg
* Reported Dec 8 12:20 AM — Dec 23 12:20 AM, Eberswalde, Weather by CustomWeather, © 2014

Note: Actual official high and low records may vary slightly from our data, if they occured in-between our weather recording intervals... More about our weather records

Advertising

Eberswalde weather history for previous 24 hours

 ConditionsComfort  
Time TempWeatherWind HumidityBarometerVisibility
12:20 AM
Dec 23
52 °FLight rain. Passing clouds.18 mph88%29.80 "HgN/A
11:50 PM
Dec 22
52 °FLight rain. Passing clouds.18 mph88%29.80 "HgN/A
11:20 PM52 °FLight rain. Passing clouds.20 mph88%29.80 "HgN/A
10:20 PM54 °FLight rain. Passing clouds.22 mph82%29.80 "HgN/A
9:50 PM54 °FLight rain. Passing clouds.23 mph82%29.80 "HgN/A
9:20 PM54 °FPassing clouds.23 mph82%29.80 "HgN/A
8:50 PM52 °FLight rain. Passing clouds.25 mph82%29.80 "HgN/A
8:20 PM54 °FPassing clouds.23 mph77%29.80 "HgN/A
7:50 PM52 °FLight rain. Passing clouds.24 mph82%29.80 "HgN/A
7:20 PM52 °FLight rain. Passing clouds.18 mph82%29.80 "HgN/A
6:50 PM50 °FPassing clouds.16 mph88%29.80 "HgN/A
6:20 PM52 °FLight rain. Passing clouds.24 mph88%29.80 "HgN/A
5:50 PM52 °FLight rain. Passing clouds.23 mph82%29.77 "HgN/A
5:20 PM52 °FLight rain. Passing clouds.26 mph82%29.77 "HgN/A
4:50 PM50 °FLight rain. Passing clouds.23 mph88%29.77 "HgN/A
4:20 PM50 °FLight rain. Passing clouds.23 mph88%29.77 "HgN/A
3:50 PM50 °FLight rain. Partly sunny.23 mph88%29.74 "HgN/A
3:20 PM50 °FPartly sunny.25 mph88%29.74 "HgN/A
2:50 PM50 °FPartly sunny.28 mph88%29.74 "HgN/A
2:20 PM50 °FPartly sunny.30 mph88%29.74 "HgN/A
1:50 PM50 °FLight rain. Partly sunny.29 mph88%29.74 "HgN/A
1:20 PM50 °FLight rain. Partly sunny.31 mph88%29.77 "HgN/A
12:50 PM52 °FPartly sunny.29 mph82%29.74 "HgN/A
12:20 PM50 °FLight rain. Partly sunny.29 mph88%29.77 "HgN/A
11:50 AM50 °FLight rain. Partly sunny.28 mph88%29.77 "HgN/A
11:20 AM48 °FDrizzle. Partly sunny.26 mph94%29.77 "HgN/A
10:50 AM48 °FDrizzle. Partly sunny.26 mph94%29.80 "HgN/A
10:20 AM48 °FDrizzle. Partly sunny.26 mph94%29.80 "HgN/A
9:50 AM48 °FDrizzle. Partly sunny.24 mph94%29.80 "HgN/A
9:20 AM48 °FDrizzle. Partly sunny.23 mph94%29.80 "Hg5 mi
8:50 AM48 °FDrizzle. Partly sunny.25 mph94%29.83 "HgN/A
8:20 AM48 °FDrizzle. Broken clouds.24 mph94%29.83 "Hg5 mi
7:50 AM48 °FPassing clouds.23 mph94%29.80 "HgN/A
7:20 AM48 °FPassing clouds.23 mph94%29.80 "Hg5 mi
6:50 AM48 °FLight rain. Passing clouds.21 mph87%29.80 "HgN/A
6:20 AM46 °FLight rain. Passing clouds.22 mph93%29.80 "HgN/A
5:50 AM46 °FLight rain. Passing clouds.23 mph93%29.80 "HgN/A
5:20 AM46 °FLight rain. Passing clouds.24 mph93%29.83 "HgN/A
4:50 AM46 °FLight rain. Passing clouds.21 mph93%29.83 "HgN/A
4:20 AM46 °FLight rain. Overcast.22 mph93%29.83 "HgN/A
3:50 AM46 °FRain. Overcast.23 mph93%29.86 "HgN/A
3:20 AM46 °FLight rain. Overcast.25 mph87%29.86 "HgN/A
2:50 AM46 °FOvercast.23 mph87%29.86 "HgN/A
2:20 AM46 °FLight rain. Passing clouds.22 mph87%29.86 "HgN/A
Weather by CustomWeather, © 2014

See weather overviewHow to use our weather pages